• In Lithuania
  • List of Countries
  • For 7 days
  • Water Temperature
  • Satellite Maps
  • Weather Map
  • Weather Widgets
  • user-avatar
    Login

    Hourly Weather Celestyny

    Today, 13 November, Tuesday

    Time Temperature Precipitation Wind Pressure Humidity
    00:00 +8°C° 0 mm 4 mps 754 mmHg 91%
    01:00 +9°C° 0 mm 3 mps 754 mmHg 95%
    02:00 +9°C° 0 mm 3 mps 754 mmHg 94%
    03:00 +9°C° 0 mm 3 mps 754 mmHg 94%
    04:00 +8°C° 0 mm 3 mps 754 mmHg 93%
    05:00 +8°C° 0 mm 3 mps 754 mmHg 93%
    06:00 +8°C° 0 mm 3 mps 754 mmHg 92%
    07:00 +8°C° 0 mm 3 mps 754 mmHg 90%
    08:00 +9°C° 0 mm 3 mps 754 mmHg 86%
    09:00 +10°C° 0 mm 3 mps 754 mmHg 82%
    10:00 +11°C° 0 mm 3 mps 754 mmHg 78%
    11:00 +12°C° 0.1 mm 4 mps 754 mmHg 75%
    12:00 +13°C° 0.1 mm 4 mps 754 mmHg 73%
    13:00 +13°C° 0.1 mm 4 mps 754 mmHg 70%
    14:00 +13°C° 0.4 mm 4 mps 754 mmHg 74%
    15:00 +12°C° 0.4 mm 4 mps 754 mmHg 79%
    16:00 +11°C° 0.4 mm 4 mps 754 mmHg 83%
    17:00 +10°C° 0.6 mm 5 mps 754 mmHg 84%
    18:00 +10°C° 0.6 mm 5 mps 755 mmHg 86%
    19:00 +9°C° 0.6 mm 5 mps 755 mmHg 87%
    20:00 +9°C° 0.1 mm 5 mps 755 mmHg 87%
    21:00 +9°C° 0.1 mm 5 mps 756 mmHg 86%
    22:00 +9°C° 0.1 mm 5 mps 756 mmHg 85%
    23:00 +8°C° 0 mm 5 mps 756 mmHg 86%

    Tomorrow, 14 November, Wednesday

    Time Temperature Precipitation Wind Pressure Humidity
    00:00 +8°C° 0 mm 5 mps 757 mmHg 86%
    01:00 +7°C° 0 mm 5 mps 757 mmHg 86%
    02:00 +7°C° 0 mm 5 mps 757 mmHg 88%
    03:00 +6°C° 0 mm 5 mps 757 mmHg 89%
    04:00 +6°C° 0 mm 5 mps 757 mmHg 90%
    05:00 +6°C° 0 mm 5 mps 757 mmHg 89%
    06:00 +6°C° 0 mm 5 mps 758 mmHg 89%
    07:00 +6°C° 0 mm 5 mps 758 mmHg 88%
    08:00 +7°C° 0 mm 5 mps 758 mmHg 87%
    09:00 +7°C° 0 mm 5 mps 758 mmHg 85%
    10:00 +7°C° 0 mm 6 mps 759 mmHg 84%
    11:00 +7°C° 0 mm 5 mps 759 mmHg 83%
    12:00 +7°C° 0 mm 5 mps 759 mmHg 82%
    13:00 +8°C° 0 mm 5 mps 759 mmHg 80%
    14:00 +7°C° 0 mm 5 mps 759 mmHg 82%
    15:00 +7°C° 0 mm 4 mps 759 mmHg 83%
    16:00 +7°C° 0 mm 4 mps 759 mmHg 84%
    17:00 +7°C° 0 mm 4 mps 760 mmHg 87%
    18:00 +7°C° 0 mm 3 mps 760 mmHg 90%
    19:00 +7°C° 0 mm 3 mps 760 mmHg 93%
    20:00 +5°C° 0 mm 3 mps 760 mmHg 93%
    21:00 +6°C° 0 mm 2 mps 760 mmHg 94%
    22:00 +6°C° 0 mm 2 mps 761 mmHg 95%
    23:00 +6°C° 0 mm 2 mps 761 mmHg 95%

    Day after tomorrow, 15 November, Thursday

    Time Temperature Precipitation Wind Pressure Humidity
    00:00 +5°C° 0 mm 2 mps 761 mmHg 95%
    01:00 +5°C° 0 mm 2 mps 761 mmHg 95%
    02:00 +6°C° 0 mm 1 mps 761 mmHg 95%
    03:00 +6°C° 0 mm 1 mps 761 mmHg 95%
    04:00 +6°C° 0 mm 1 mps 761 mmHg 95%
    05:00 +6°C° 0 mm 1 mps 761 mmHg 95%
    06:00 +6°C° 0 mm 1 mps 761 mmHg 95%
    07:00 +6°C° 0 mm 1 mps 762 mmHg 94%
    08:00 +7°C° 0 mm 1 mps 762 mmHg 91%
    09:00 +8°C° 0 mm 1 mps 762 mmHg 88%
    10:00 +8°C° 0 mm 1 mps 762 mmHg 85%
    11:00 +9°C° 0 mm 1 mps 762 mmHg 81%
    12:00 +9°C° 0 mm 1 mps 762 mmHg 78%
    13:00 +9°C° 0 mm 1 mps 762 mmHg 74%
    14:00 +9°C° 0 mm 1 mps 762 mmHg 76%
    15:00 +8°C° 0 mm 1 mps 762 mmHg 78%
    16:00 +8°C° 0 mm 1 mps 762 mmHg 80%
    17:00 +8°C° 0 mm 1 mps 763 mmHg 82%
    18:00 +6°C° 0 mm 2 mps 763 mmHg 85%
    19:00 +6°C° 0 mm 2 mps 763 mmHg 87%
    20:00 +5°C° 0 mm 2 mps 763 mmHg 88%
    21:00 +5°C° 0 mm 2 mps 764 mmHg 89%
    22:00 +5°C° 0 mm 2 mps 764 mmHg 90%
    23:00 +4°C° 0 mm 2 mps 764 mmHg 91%

    16 November, Friday

    Time Temperature Precipitation Wind Pressure Humidity
    00:00 +4°C° 0 mm 2 mps 764 mmHg 91%
    01:00 +4°C° 0 mm 2 mps 764 mmHg 92%
    02:00 +4°C° 0 mm 2 mps 764 mmHg 92%
    03:00 +3°C° 0 mm 2 mps 764 mmHg 92%
    04:00 +3°C° 0 mm 2 mps 764 mmHg 93%
    05:00 +3°C° 0 mm 2 mps 765 mmHg 93%
    06:00 +3°C° 0 mm 2 mps 765 mmHg 93%
    07:00 +3°C° 0 mm 2 mps 765 mmHg 94%
    08:00 +2°C° 0 mm 3 mps 765 mmHg 89%
    09:00 +3°C° 0 mm 3 mps 765 mmHg 84%
    10:00 +4°C° 0 mm 3 mps 766 mmHg 80%
    11:00 +5°C° 0 mm 3 mps 766 mmHg 76%
    12:00 +5°C° 0 mm 3 mps 766 mmHg 72%
    13:00 +7°C° 0 mm 3 mps 766 mmHg 69%
    14:00 +5°C° 0 mm 3 mps 766 mmHg 72%
    15:00 +4°C° 0 mm 3 mps 766 mmHg 75%
    16:00 +4°C° 0 mm 3 mps 766 mmHg 78%
    17:00 +3°C° 0 mm 3 mps 766 mmHg 80%
    18:00 +3°C° 0 mm 3 mps 766 mmHg 82%
    19:00 +3°C° 0 mm 3 mps 766 mmHg 84%
    20:00 +2°C° 0 mm 3 mps 766 mmHg 85%
    21:00 +2°C° 0 mm 3 mps 766 mmHg 86%
    22:00 +2°C° 0 mm 3 mps 767 mmHg 88%
    23:00 +2°C° 0 mm 3 mps 767 mmHg 89%

    17 November, Saturday

    Time Temperature Precipitation Wind Pressure Humidity
    00:00 +1°C° 0 mm 3 mps 767 mmHg 91%
    01:00 +1°C° 0 mm 3 mps 767 mmHg 92%
    02:00 +1°C° 0 mm 3 mps 767 mmHg 92%
    03:00 +1°C° 0 mm 3 mps 767 mmHg 93%
    04:00 0°C° 0 mm 3 mps 767 mmHg 93%
    05:00 0°C° 0 mm 3 mps 767 mmHg 92%
    06:00 0°C° 0 mm 3 mps 767 mmHg 92%
    07:00 0°C° 0 mm 3 mps 767 mmHg 92%
    08:00 +1°C° 0 mm 3 mps 767 mmHg 86%
    09:00 +1°C° 0 mm 3 mps 767 mmHg 79%
    10:00 +2°C° 0 mm 3 mps 767 mmHg 73%
    11:00 +3°C° 0 mm 3 mps 767 mmHg 69%
    12:00 +4°C° 0 mm 3 mps 767 mmHg 65%
    13:00 +5°C° 0 mm 3 mps 767 mmHg 61%
    14:00 +4°C° 0 mm 3 mps 767 mmHg 64%
    15:00 +3°C° 0 mm 3 mps 766 mmHg 67%
    16:00 +4°C° 0 mm 2 mps 766 mmHg 70%
    17:00 +3°C° 0 mm 2 mps 766 mmHg 71%
    18:00 +3°C° 0 mm 2 mps 766 mmHg 72%
    19:00 +2°C° 0 mm 2 mps 766 mmHg 73%
    20:00 +2°C° 0 mm 2 mps 766 mmHg 73%
    21:00 +2°C° 0 mm 2 mps 766 mmHg 73%
    22:00 +2°C° 0 mm 2 mps 766 mmHg 73%
    23:00 +1°C° 0 mm 2 mps 766 mmHg 73%

    18 November, Sunday

    Time Temperature Precipitation Wind Pressure Humidity
    00:00 +2°C° 0 mm 1 mps 765 mmHg 73%
    01:00 +2°C° 0 mm 1 mps 765 mmHg 73%
    02:00 +2°C° 0 mm 1 mps 765 mmHg 73%
    03:00 +2°C° 0 mm 1 mps 764 mmHg 73%
    04:00 +1°C° 0 mm 1 mps 764 mmHg 73%
    05:00 +1°C° 0 mm 1 mps 764 mmHg 74%
    06:00 +1°C° 0 mm 1 mps 763 mmHg 75%
    07:00 +1°C° 0 mm 1 mps 763 mmHg 75%
    08:00 +2°C° 0 mm 1 mps 763 mmHg 73%
    09:00 +2°C° 0 mm 2 mps 763 mmHg 70%
    10:00 +3°C° 0 mm 2 mps 763 mmHg 67%
    11:00 +4°C° 0 mm 2 mps 762 mmHg 69%
    12:00 +5°C° 0 mm 2 mps 761 mmHg 71%
    13:00 +4°C° 0 mm 3 mps 761 mmHg 72%
    14:00 +4°C° 0 mm 3 mps 761 mmHg 77%
    15:00 +4°C° 0 mm 3 mps 760 mmHg 83%
    16:00 +3°C° 0 mm 3 mps 760 mmHg 88%
    17:00 +3°C° 0 mm 4 mps 760 mmHg 85%
    18:00 +2°C° 0 mm 5 mps 760 mmHg 82%
    19:00 +2°C° 0 mm 6 mps 760 mmHg 79%
    20:00 +2°C° 0 mm 6 mps 760 mmHg 76%
    21:00 +2°C° 0 mm 5 mps 760 mmHg 73%
    22:00 +2°C° 0 mm 5 mps 761 mmHg 71%
    23:00 +2°C° 0 mm 5 mps 761 mmHg 72%
    Show more